User: anonymous   Login
Location: Banksville Park
(38.5557°N, 75.1182°W)
Time: 12:51:41
(UTC+00:00)
Language:

In-Cosmos 22 - Orbit

View from above orbital plane
View from above orbital plane
View from above satellite
View from above satellite

Ground track
Ground track

The orbit data is extracted from the following two-line orbital elements,

1 12645U 81075A   20330.70950837  .00000031  00000-0  89920-5 0  9993
2 12645  81.2201  56.8151 0062665 269.8856  89.5138 14.18379410 32602
Epoch (UTC): 25 November 2020 17:01:41
Eccentricity: 0.0062665
inclination: 81.2201°
perigee height: 785 km
apogee height: 876 km
right ascension of ascending node: 56.8151°
argument of perigee: 269.8856°
revolutions per day: 14.18379410
mean anomaly at epoch: 89.5138°
orbit number at epoch: 3260

The dashed part of the orbit path shows where the satellite is in the earth's shadow,  

DLR